WB9TLH-12 Weather Reports


Display with metric or nautical units.
time (UTC)temp
F
wind
direction
speed
MPH
gust
MPH
rain 1hr
in
rain 24hr
in
rain mn
in
humidity
%
barometer
mb
20260504012245 59 153 0.0 0.0 0.00 0.02 0.02 54 1010.0
20260504011745 59 171 0.0 0.0 0.00 0.02 0.02 54 1010.0
20260504011244 59 182 0.0 0.0 0.00 0.02 0.02 54 1010.0
20260504010744 59 182 0.0 0.0 0.00 0.02 0.02 54 1010.0
20260504010244 59 207 0.0 0.0 0.00 0.02 0.02 54 1009.9
20260504005744 59 254 0.0 0.0 0.00 0.02 0.02 54 1009.8
20260504005243 59 157 0.0 0.0 0.00 0.02 0.02 54 1009.8
20260504004743 60 164 0.0 0.0 0.00 0.02 0.02 54 1009.7
20260504004243 60 213 0.0 0.0 0.00 0.02 0.02 54 1009.5
20260504003742 60 167 0.0 0.0 0.00 0.02 0.02 54 1009.6
20260504003242 60 149 0.0 0.0 0.00 0.02 0.02 53 1009.7
20260504002742 60 147 0.0 0.0 0.00 0.02 0.02 52 1009.9
20260504002242 61 167 0.0 0.0 0.00 0.02 0.02 51 1010.4
20260504001741 61 198 0.0 0.0 0.00 0.02 0.02 50 1010.7
20260504001241 61 144 0.0 0.0 0.00 0.02 0.02 50 1010.7
20260504000741 61 202 0.0 0.0 0.00 0.02 0.02 50 1010.8
20260504000241 61 188 0.0 0.0 0.00 0.02 0.02 49 1010.8
20260503235740 61 140 0.0 0.0 0.00 0.02 0.02 49 1010.6
20260503235240 61 194 0.0 0.0 0.00 0.02 0.02 49 1010.8
20260503234739 61 161 0.0 0.0 0.00 0.02 0.02 49 1010.9
20260503234239 61 157 0.0 0.0 0.00 0.02 0.02 48 1011.1
20260503233739 61 186 0.0 0.0 0.00 0.02 0.02 49 1011.3
20260503233239 61 164 0.0 0.0 0.00 0.02 0.02 49 1011.4
20260503232738 61 201 0.0 0.0 0.00 0.02 0.02 49 1011.5
20260503232238 61 175 0.0 0.0 0.00 0.02 0.02 49 1011.5
20260503231738 61 189 0.0 0.0 0.00 0.02 0.02 49 1011.2
20260503231237 61 186 0.0 0.0 0.00 0.02 0.02 48 1010.9
20260503230737 61 178 0.0 0.0 0.00 0.02 0.02 48 1010.7
20260503230237 61 160 0.0 0.0 0.00 0.02 0.02 48 1010.8
20260503225737 61 173 0.0 0.0 0.00 0.02 0.02 48 1010.8
20260503225236 61 149 0.0 0.0 0.00 0.02 0.02 48 1010.9
20260503224736 62 194 0.0 0.0 0.00 0.02 0.02 48 1010.9
20260503224236 62 178 0.0 0.0 0.00 0.02 0.02 47 1011.0
20260503223735 62 198 0.0 0.0 0.00 0.02 0.02 47 1011.2
20260503223235 62 187 0.0 0.0 0.00 0.02 0.02 47 1011.1
20260503222735 62 223 0.0 0.0 0.00 0.02 0.02 47 1011.2
20260503222234 61 158 0.0 0.0 0.00 0.02 0.02 47 1011.2
20260503221734 62 162 0.0 0.0 0.00 0.02 0.02 47 1010.9
20260503221234 62 177 0.0 0.0 0.00 0.02 0.02 46 1011.2
20260503220734 62 192 0.0 0.0 0.00 0.02 0.02 46 1011.1
20260503220233 62 178 0.0 0.0 0.00 0.02 0.02 46 1011.1
20260503215733 62 213 0.0 0.0 0.00 0.02 0.02 46 1011.5
20260503215233 62 205 0.0 0.0 0.00 0.02 0.02 45 1011.4
20260503214732 62 221 0.0 0.0 0.00 0.02 0.02 45 1011.2
20260503214232 62 186 0.0 0.0 0.00 0.02 0.02 46 1011.3
20260503213732 61 200 0.0 0.0 0.00 0.02 0.02 46 1011.5
20260503213232 61 189 0.0 0.0 0.00 0.02 0.02 46 1011.5
20260503212731 61 194 0.0 0.0 0.00 0.02 0.02 46 1011.6
20260503212231 61 176 0.0 0.0 0.00 0.02 0.02 46 1011.6
20260503211731 61 182 0.0 0.0 0.00 0.02 0.02 45 1011.6
20260503211230 61 188 0.0 0.0 0.00 0.02 0.02 46 1011.8
20260503210730 61 227 0.0 0.0 0.00 0.02 0.02 45 1012.0
20260503210230 61 206 0.0 0.0 0.00 0.02 0.02 45 1012.2
20260503205730 61 164 0.0 0.0 0.00 0.02 0.02 44 1012.3
20260503205229 61 214 0.0 0.0 0.00 0.02 0.02 45 1012.5
20260503204729 61 196 0.0 0.0 0.00 0.02 0.02 44 1012.7
20260503204229 62 186 0.0 0.0 0.00 0.02 0.02 44 1013.1
20260503203728 62 303 0.0 0.0 0.00 0.02 0.02 43 1013.4
20260503203228 62 209 0.0 0.0 0.00 0.02 0.02 43 1013.4
20260503202728 62 290 0.0 0.0 0.00 0.02 0.02 43 1013.4
20260503202227 62 213 0.0 0.0 0.00 0.02 0.02 43 1013.7
20260503201727 62 205 0.0 0.0 0.00 0.02 0.02 43 1013.6
20260503201227 62 249 0.0 0.0 0.00 0.02 0.02 42 1013.5
20260503200727 62 202 0.0 0.0 0.00 0.02 0.02 42 1013.4
20260503200226 62 208 0.0 0.0 0.00 0.02 0.02 42 1013.5
20260503195726 62 221 0.0 0.0 0.00 0.02 0.02 42 1013.4
20260503195226 62 242 0.0 0.0 0.00 0.02 0.02 42 1013.4
20260503194726 62 218 0.0 0.0 0.00 0.02 0.02 42 1013.6
20260503194225 62 223 0.0 0.0 0.00 0.02 0.02 43 1013.5
20260503193725 62 169 0.0 0.0 0.00 0.02 0.02 43 1013.8
20260503193225 62 230 0.0 0.0 0.00 0.02 0.02 43 1013.7
20260503192724 62 219 0.0 0.0 0.01 0.02 0.02 43 1013.6
20260503192224 61 227 0.0 0.0 0.01 0.02 0.02 43 1014.1
20260503191724 61 203 0.0 0.0 0.01 0.02 0.02 43 1013.9
20260503191223 61 192 0.0 0.0 0.01 0.02 0.02 43 1014.0
20260503190723 61 100 0.0 0.0 0.01 0.03 0.02 43 1014.0
20260503190223 61 175 0.0 0.0 0.01 0.03 0.02 43 1014.0
20260503185723 61 225 0.0 0.0 0.01 0.03 0.02 43 1014.3
20260503185222 60 186 0.0 0.0 0.01 0.03 0.02 44 1014.5
20260503184722 61 217 0.0 0.0 0.01 0.03 0.02 43 1014.6
20260503184222 60 157 0.0 0.0 0.01 0.03 0.02 43 1014.6
20260503183721 60 215 0.0 0.0 0.01 0.03 0.02 43 1014.7
20260503183221 60 185 0.0 0.0 0.01 0.03 0.02 43 1014.8
20260503182721 60 215 0.0 0.0 0.00 0.02 0.01 43 1015.1
20260503182220 60 273 0.0 0.0 0.00 0.02 0.01 42 1015.2
20260503181720 60 162 0.0 0.0 0.00 0.02 0.01 42 1015.4
20260503181220 60 238 0.0 0.0 0.00 0.02 0.01 43 1015.4
20260503180720 60 201 0.0 0.0 0.00 0.02 0.01 44 1015.5
20260503180219 60 192 0.0 0.0 0.00 0.02 0.01 43 1015.7
20260503175719 60 210 0.0 0.0 0.00 0.02 0.01 41 1015.8
20260503175219 60 213 0.0 0.0 0.00 0.02 0.01 43 1015.8
20260503174718 60 227 0.0 0.0 0.00 0.02 0.01 43 1015.9
20260503174218 60 228 0.0 0.0 0.00 0.02 0.01 43 1016.1
20260503173718 60 265 0.0 0.0 0.00 0.02 0.01 42 1016.2
20260503173218 59 266 0.0 0.0 0.00 0.02 0.01 43 1016.3
20260503172717 60 241 0.0 0.0 0.00 0.02 0.01 42 1016.4
20260503172217 60 229 0.0 0.0 0.00 0.02 0.01 42 1016.2
20260503171717 60 217 0.0 0.0 0.00 0.02 0.01 43 1016.4
20260503171216 60 232 0.0 0.0 0.00 0.02 0.01 43 1016.5
20260503170716 60 243 0.0 0.0 0.00 0.02 0.01 43 1016.4
20260503170216 60 175 0.0 0.0 0.00 0.02 0.01 43 1016.5
20260503160212 57 195 0.0 0.0 0.00 0.02 0.01 44 1017.4
20260503150709 56 205 0.0 0.0 0.00 0.03 0.01 45 1018.0
20260503150209 55 172 0.0 0.0 0.00 0.03 0.01 44 1018.0
20260503140205 52 252 0.0 0.0 0.00 0.03 0.01 50 1018.3
20260503131202 47 208 0.0 0.0 0.00 0.03 0.01 58 1018.3
20260503130702 47 229 0.0 0.0 0.00 0.03 0.01 59 1018.5
20260503130202 46 196 0.0 0.0 0.00 0.03 0.01 59 1018.5
20260503120158 41 139 0.0 0.0 0.00 0.03 0.01 69 1018.3
20260503110655 37 180 0.0 0.0 0.00 0.03 0.01 77 1017.8
20260503110155 37 180 0.0 0.0 0.00 0.03 0.01 77 1017.8
20260503100151 38 179 0.0 0.0 0.00 0.03 0.01 76 1017.6
20260503090148 38 192 0.0 0.0 0.00 0.03 0.01 77 1017.5
20260503081145 38 180 0.0 0.0 0.01 0.03 0.01 78 1017.4
20260503080644 38 176 0.0 0.0 0.01 0.03 0.01 79 1017.5
20260503080144 38 175 0.0 0.0 0.01 0.03 0.01 79 1017.4
20260503072642 39 174 0.0 0.0 0.00 0.02 0.00 79 1017.3
20260503072142 39 174 0.0 0.0 0.00 0.02 0.00 79 1017.4
20260503071642 39 174 0.0 0.0 0.00 0.02 0.00 78 1017.4
20260503071141 39 174 0.0 0.0 0.00 0.02 0.00 77 1017.5
20260503070641 40 174 0.0 0.0 0.00 0.02 0.00 77 1017.5
20260503070141 40 174 0.0 0.0 0.00 0.02 0.00 76 1017.5
20260503060137 39 137 0.0 0.0 0.00 0.03 0.00 78 1017.8
20260503054636 40 113 0.0 0.0 0.00 0.03 0.00 78 1017.9
20260503054136 40 92 0.0 0.0 0.00 0.03 0.00 78 1017.9
20260503053636 40 58 0.0 0.0 0.00 0.03 0.00 77 1017.9
20260503053135 40 41 0.0 0.0 0.00 0.03 0.00 77 1017.9
20260503052635 40 39 0.0 0.0 0.00 0.03 0.00 77 1018.0
20260503052135 41 38 0.0 0.0 0.00 0.03 0.00 77 1018.1
20260503051635 41 22 0.0 0.0 0.00 0.03 0.00 76 1018.0
20260503051134 41 22 0.0 0.0 0.00 0.03 0.00 75 1018.0
20260503050634 41 21 0.0 0.0 0.00 0.03 0.00 74 1018.0
20260503050134 41 19 0.0 0.0 0.00 0.03 0.00 73 1018.0
20260503045633 42 13 0.0 0.0 0.00 0.03 0.00 72 1018.0
20260503045133 42 13 0.0 0.0 0.00 0.03 0.00 70 1018.0
20260503044633 42 13 0.0 0.0 0.00 0.03 0.00 70 1018.1
20260503044132 43 13 0.0 0.0 0.00 0.03 0.00 69 1018.1
20260503043632 43 13 0.0 0.0 0.00 0.03 0.00 68 1018.1
20260503043132 43 13 0.0 0.0 0.00 0.03 0.00 67 1018.0
20260503042632 43 13 0.0 0.0 0.00 0.03 0.00 67 1017.9
20260503042131 43 13 0.0 0.0 0.00 0.03 0.00 66 1017.9
20260503041631 43 13 0.0 0.0 0.00 0.03 0.00 66 1017.9
20260503041131 43 13 0.0 0.0 0.00 0.03 0.00 67 1017.9
20260503040630 44 13 0.0 0.0 0.00 0.03 0.00 67 1017.9
20260503040130 44 13 0.0 0.0 0.00 0.03 0.00 66 1017.8
20260503035630 44 13 0.0 0.0 0.00 0.03 0.00 65 1017.8
20260503035130 44 13 0.0 0.0 0.00 0.03 0.00 66 1017.9
20260503034629 45 13 0.0 0.0 0.00 0.03 0.00 64 1017.9
20260503034129 45 13 0.0 0.0 0.00 0.03 0.00 64 1017.9
20260503033629 45 13 0.0 0.0 0.00 0.03 0.03 63 1017.9
20260503033128 45 13 0.0 0.0 0.00 0.03 0.03 63 1017.9
20260503032628 45 13 0.0 0.0 0.00 0.03 0.03 65 1017.9
20260503032128 45 13 0.0 0.0 0.00 0.03 0.03 65 1017.9
20260503031628 45 13 0.0 0.0 0.00 0.03 0.03 64 1018.0
20260503031127 45 13 0.0 0.0 0.00 0.03 0.03 63 1018.0
20260503030627 45 13 0.0 0.0 0.00 0.03 0.03 62 1018.0
20260503030127 46 13 0.0 0.0 0.00 0.03 0.03 61 1018.1
20260503025626 46 13 0.0 0.0 0.00 0.03 0.03 61 1018.0
20260503025126 46 13 0.0 0.0 0.00 0.03 0.03 61 1018.0
20260503024626 46 13 0.0 0.0 0.00 0.03 0.03 61 1018.0
20260503024125 46 13 0.0 0.0 0.00 0.03 0.03 60 1017.9
20260503023625 46 13 0.0 0.0 0.00 0.03 0.03 58 1017.9
20260503023125 46 13 0.0 0.0 0.00 0.03 0.03 57 1017.9
20260503022625 46 13 0.0 0.0 0.00 0.03 0.03 56 1017.9
20260503022124 47 13 0.0 0.0 0.00 0.03 0.03 57 1017.8
20260503021624 47 13 0.0 0.0 0.00 0.03 0.03 53 1017.7
20260503021124 47 13 0.0 0.0 0.00 0.03 0.03 55 1017.7
20260503020624 47 13 0.0 0.0 0.00 0.03 0.03 53 1017.7
20260503020123 47 13 0.0 0.0 0.00 0.03 0.03 52 1017.6
20260503015623 48 13 0.0 0.0 0.00 0.03 0.03 52 1017.6
20260503015123 48 13 0.0 0.0 0.00 0.03 0.03 51 1017.6
20260503014623 48 13 0.0 0.0 0.00 0.03 0.03 52 1017.4
20260503014122 48 13 0.0 0.0 0.00 0.03 0.03 49 1017.3
20260503013622 48 13 0.0 0.0 0.00 0.03 0.03 48 1017.3
20260503013121 48 13 0.0 0.0 0.00 0.03 0.03 49 1017.3
20260503012621 48 13 0.0 0.0 0.00 0.03 0.03 48 1017.2